DW8016 Weather Reports


time (UTC)temp
F
wind
direction
speed
knots
gust
knots
rain 1hr
in
rain 24hr
in
rain mn
in
humidity
%
barometer
mb
20260906173712 85 355 0.0 2.6 0.00 0.00 0.00 50 1014.7
20260906172730 85 25 0.0 2.6 0.00 0.00 0.00 46 1014.7
20260906171736 83 355 0.9 3.5 0.00 0.00 0.00 51 1014.8
20260906170748 84 315 0.0 0.0 0.00 0.00 0.00 51 1014.8
20260906162329 82 133 0.9 5.2 0.00 0.00 0.00 52 1015.0
20260906161345 83 5 0.9 5.2 0.00 0.00 0.00 51 1015.0
20260906160335 81 355 0.9 4.3 0.00 0.00 0.00 53 1015.1
20260906155315 81 9 0.9 5.2 0.00 0.00 0.00 57 1015.1
20260906154330 80 12 0.9 5.2 0.00 0.00 0.00 58 1015.2
20260906153313 81 355 0.9 3.5 0.00 0.00 0.00 56 1015.2
20260906152300 82 0 0.9 3.5 0.00 0.00 0.00 55 1015.4
20260906151239 81 350 0.0 3.5 0.00 0.00 0.00 58 1015.2
20260906145059 80 40 0.9 5.2 0.00 0.00 0.00 61 1015.0
20260906144118 79 105 0.9 5.2 0.00 0.00 0.00 61 1015.0
20260906143059 79 317 0.0 1.7 0.00 0.00 0.00 63 1015.0
20260906142110 78 317 0.0 2.6 0.00 0.00 0.00 62 1015.0
20260906141056 77 309 0.0 2.6 0.00 0.00 0.00 65 1015.0
20260906140108 77 298 0.0 1.7 0.00 0.00 0.00 65 1014.9
20260906135119 76 78 0.0 0.9 0.00 0.00 0.00 67 1014.9
20260906133012 75 67 0.0 0.0 0.00 0.00 0.00 69 1015.0
20260906132027 75 59 0.0 0.0 0.00 0.00 0.00 71 1014.9
20260906131005 73 355 0.0 1.7 0.00 0.00 0.00 73 1014.9
20260906125943 72 161 0.0 0.0 0.00 0.00 0.00 76 1014.8
20260906124957 71 161 0.0 0.0 0.00 0.00 0.00 78 1014.8
20260906124018 70 161 0.0 0.0 0.00 0.00 0.00 80 1014.8
20260906123024 70 161 0.0 0.9 0.00 0.00 0.00 79 1014.7
20260906122004 69 161 0.0 0.0 0.00 0.00 0.00 82 1014.6
20260906121016 68 161 0.0 0.0 0.00 0.00 0.00 84 1014.5
20260906120027 66 161 0.0 0.0 0.00 0.00 0.00 86 1014.4
20260906115003 65 161 0.0 0.0 0.00 0.00 0.00 89 1014.3
20260906112848 63 161 0.0 0.0 0.00 0.00 0.00 93 1014.2
20260906111912 63 161 0.0 0.0 0.00 0.00 0.00 94 1014.1
20260906110908 62 165 0.0 0.0 0.00 0.00 0.00 93 1014.1
20260906103531 62 165 0.0 0.0 0.00 0.00 0.00 92 1013.5
20260906102536 62 165 0.0 0.0 0.00 0.00 0.00 92 1013.3
20260906101547 62 165 0.0 0.0 0.00 0.00 0.00 92 1013.2
20260906100516 62 165 0.0 0.0 0.00 0.00 0.00 92 1013.1
20260906095513 62 165 0.0 0.0 0.00 0.00 0.00 92 1012.9
20260906093348 63 165 0.0 0.0 0.00 0.00 0.00 92 1012.9
20260906092402 63 165 0.0 0.0 0.00 0.00 0.00 92 1012.8
20260906091337 63 165 0.0 0.0 0.00 0.00 0.00 92 1012.6
20260906090308 63 165 0.0 0.0 0.00 0.00 0.00 92 1012.5
20260906085256 63 165 0.0 0.0 0.00 0.00 0.00 91 1012.4
20260906084226 63 165 0.0 0.0 0.00 0.00 0.00 91 1012.4
20260906083235 64 165 0.0 0.0 0.00 0.00 0.00 92 1012.3
20260906082234 64 165 0.0 0.0 0.00 0.00 0.00 91 1012.3
20260906081252 64 165 0.0 0.0 0.00 0.00 0.00 91 1012.3
20260906080314 64 165 0.0 0.0 0.00 0.00 0.00 91 1012.2
20260906075249 64 165 0.0 0.0 0.00 0.00 0.00 91 1012.2
20260906074220 65 165 0.0 0.0 0.00 0.00 0.00 91 1012.2
20260906073206 65 165 0.0 0.0 0.00 0.00 0.00 91 1012.2
20260906072222 65 165 0.0 0.0 0.00 0.00 0.00 91 1012.1
20260906070139 65 165 0.0 0.0 0.00 0.00 0.00 90 1012.1
20260906065135 66 165 0.0 0.0 0.00 0.00 0.00 90 1012.1
20260906064147 66 165 0.0 0.0 0.00 0.00 0.00 90 1012.0
20260906063154 66 165 0.0 0.0 0.00 0.00 0.00 90 1011.9
20260906062125 66 165 0.0 0.0 0.00 0.00 0.00 89 1012.1
20260906061110 67 165 0.0 0.0 0.00 0.00 0.00 89 1012.1
20260906060039 67 165 0.0 0.0 0.00 0.00 0.00 89 1012.1
20260906055102 67 165 0.0 0.0 0.00 0.00 0.00 89 1012.1
20260906054120 67 165 0.0 0.0 0.00 0.00 0.00 88 1012.0
20260906053127 68 165 0.0 0.0 0.00 0.00 0.00 87 1012.0
20260906052141 68 165 0.0 0.0 0.00 0.00 0.00 86 1012.1
20260906051124 69 165 0.0 0.0 0.00 0.00 0.00 86 1012.2
20260906050100 69 165 0.0 0.0 0.00 0.00 0.00 85 1012.2
20260906045027 70 165 0.0 0.0 0.00 0.00 0.00 85 1012.3
20260906044011 70 165 0.0 0.0 0.00 0.00 0.00 84 1012.4
20260906043033 71 165 0.0 0.0 0.00 0.00 0.00 82 1012.5
20260906042008 71 165 0.0 0.0 0.00 0.00 0.00 81 1012.6
20260906041020 72 165 0.0 0.0 0.00 0.00 0.00 81 1012.5
20260906034907 73 165 0.0 0.0 0.00 0.00 0.00 81 1012.3
20260906033844 73 165 0.0 0.0 0.00 0.00 0.00 79 1012.3
20260906032814 74 165 0.0 0.0 0.00 0.00 0.00 79 1012.4
20260906031826 74 165 0.0 0.0 0.00 0.00 0.00 78 1012.6
20260906030830 74 165 0.0 0.0 0.00 0.00 0.00 76 1012.5
20260906025812 75 165 0.0 0.0 0.00 0.00 0.00 75 1012.4
20260906024824 75 165 0.0 0.0 0.00 0.00 0.00 76 1012.2
20260906020356 76 165 0.0 0.0 0.00 0.00 0.00 73 1012.3
20260906014244 76 165 0.0 0.0 0.00 0.00 0.00 73 1012.1
20260906013308 76 165 0.0 0.0 0.00 0.00 0.00 73 1011.9
20260906012331 76 165 0.0 0.0 0.00 0.00 0.00 72 1011.8
20260906011341 76 165 0.0 0.0 0.00 0.00 0.00 72 1011.8
20260906010345 76 165 0.0 0.0 0.00 0.00 0.00 71 1011.5
20260906005400 77 165 0.0 0.0 0.00 0.00 0.00 71 1011.5
20260906004405 77 165 0.0 0.0 0.00 0.00 0.00 71 1011.3
20260906003359 77 165 0.0 0.0 0.00 0.00 0.00 71 1011.3
20260906002345 77 165 0.0 0.0 0.00 0.00 0.00 71 1011.2
20260906001405 78 165 0.0 0.0 0.00 0.00 0.00 70 1011.2
20260906000410 78 165 0.0 0.0 0.00 0.00 0.00 70 1011.1
20260905235348 78 165 0.0 0.0 0.00 0.00 0.00 70 1011.0
20260905234338 78 165 0.0 0.0 0.00 0.00 0.00 72 1011.0
20260905232248 79 165 0.0 0.0 0.00 0.00 0.00 73 1010.7
20260905231247 80 165 0.0 0.0 0.00 0.00 0.00 71 1010.6
20260905225110 80 165 0.0 0.0 0.00 0.00 0.00 67 1010.6
20260905224110 80 165 0.0 0.0 0.00 0.00 0.00 66 1010.5
20260905223046 81 165 0.0 0.0 0.00 0.00 0.00 66 1010.4
20260905222021 81 165 0.0 0.0 0.00 0.00 0.00 67 1010.5
20260905221010 81 165 0.0 0.0 0.00 0.00 0.00 66 1010.4
20260905214840 81 165 0.0 0.0 0.00 0.00 0.00 69 1010.3
20260905213807 80 165 0.0 0.9 0.00 0.00 0.00 66 1010.2
20260905212819 81 165 0.0 0.0 0.00 0.00 0.00 68 1010.0
20260905211814 81 165 0.0 0.0 0.00 0.00 0.00 67 1009.9
20260905210812 81 165 0.0 0.0 0.00 0.00 0.00 68 1009.8
20260905205811 81 165 0.0 0.9 0.00 0.00 0.00 67 1009.7
20260905204744 82 165 0.0 0.0 0.00 0.00 0.00 66 1009.8
20260905202600 83 0 0.0 0.9 0.00 0.00 0.00 65 1009.8
20260905201618 82 0 0.0 5.2 0.00 0.00 0.00 65 1009.9
20260905200641 83 9 0.0 3.5 0.00 0.00 0.00 65 1009.8
20260905195652 83 87 0.0 4.3 0.00 0.00 0.00 64 1010.0
20260905192430 83 104 0.0 4.3 0.00 0.00 0.00 63 1010.0
20260905191431 83 355 0.0 3.5 0.00 0.00 0.00 65 1010.1
20260905190408 83 91 0.9 4.3 0.00 0.00 0.00 67 1010.1
20260905185428 83 288 0.0 4.3 0.00 0.00 0.00 69 1010.3
20260905184359 82 315 0.0 0.9 0.00 0.00 0.00 70 1010.3
20260905183327 82 315 0.0 0.0 0.00 0.00 0.00 72 1010.5
20260905182334 82 316 0.0 2.6 0.00 0.00 0.00 72 1010.7
20260905181329 81 316 0.0 2.6 0.00 0.00 0.00 71 1010.7
20260905180323 81 288 0.0 0.9 0.00 0.00 0.00 72 1010.9
20260905175316 82 288 0.0 0.0 0.00 0.00 0.00 71 1011.1